Content
SEND FEEDBACK

Daily
Averages
Monthly
Summary
United States of America

CHESTERFIELD, MISSOURI


Home > North America > United States > Missouri
Elevation: 559 feet     Latitude: 38 41N     Longitude: 090 31W

WEATHER
 
SELECT A DAY
Number of Records: 203,268;   Date Range: 1/1/95 - 7/7/14
 
SHARE

PRINT THIS DATA

[ ← Previous Day ]
WEATHER ALMANAC - JANUARY 22, 2013
[ Next Day → ]
[ °C ]   °F
Weather ElementAverageHighLow
Temperature15.7 °F18 °F (4:51 pm)14 °F (2:51 am)
Dewpoint5 °F9 °F (12:51 pm)-2.9 °F (4:51 am)
Humidity63.7 %80 % (10:51 pm)47 % (1:51 am)
Barometer30.46 in30.54 in (10:51 am)30.40 in (3:51 am)
Wind Speed3.6 mph9.2 mph (4:51 am)
Weather ElementAverage
Visibility7.4 mi
Wind DirectionS (181.9 °)

Weather ElementTotal
Precipitation0.03 in
Heating Degree Days49 (Base 65)
Averaged from 31 records on January 22, 2013
WEATHER CONDITIONS BREAKOUT
WIND DIRECTION BREAKOUT
WEATHER BY HOUR - JANUARY 22, 2013
[ °C ]   °F
Local TimeTemperatureDewpointHumidityBarometerVisibilityWind DirectionWind SpeedGust SpeedPrecipitationEventsConditions
1:51 AM15.1 °F-2.0 °F47 %30.44 in10.0 miNW (320°)6.9 mphMostly Cloudy
2:51 AM14.0 °F-2.0 °F49 %30.45 in10.0 miNW (320°)5.8 mphMostly Cloudy
3:51 AM14.0 °F-2.2 °F49 %30.40 in10.0 miNW (320°)5.8 mphMostly Cloudy
4:51 AM14.0 °F-2.9 °F47 %30.47 in10.0 miNW (310°)9.2 mphMostly Cloudy
5:51 AM14.0 °F-2.0 °F49 %30.47 in10.0 miNW (320°)5.8 mphMostly Cloudy
6:51 AM14.0 °F-0.9 °F52 %30.47 in10.0 miNorth (10°)5.8 mphMostly Cloudy
7:51 AM14.0 °F-0.9 °F52 %30.48 in10.0 miNorth (350°)4.6 mphMostly Cloudy
8:51 AM14.0 °F-0.9 °F52 %30.51 in10.0 miNNW (330°)3.5 mphOvercast
9:51 AM15.1 °F-0.9 °F49 %30.52 in10.0 miSSW (210°)3.5 mphOvercast
10:51 AM16.0 °F0.0 °F49 %30.54 in8.0 miWSW (240°)3.5 mph0.00 inSnowLight Snow
10:56 AM15.8 °F1.4 °F53 %30.48 in2.5 miCalm0.00 inSnowLight Snow
11:16 AM15.8 °F3.2 °F58 %30.48 in2.0 miCalm0.00 inSnowLight Snow
11:45 AM15.8 °F6.8 °F68 %30.47 in1.5 miWNW (300°)3.5 mph0.01 inSnowLight Snow
11:51 AM16.0 °F7.0 °F68 %30.53 in1.5 miWest (260°)4.6 mph0.01 inSnowLight Snow
12:22 PM15.8 °F8.6 °F73 %30.45 in1.0 miWest (260°)3.5 mph0.00 inSnowLight Snow
12:51 PM16.0 °F9.0 °F74 %30.48 in1.0 miWest (260°)5.8 mph0.01 inSnowLight Snow
12:56 PM15.8 °F8.6 °F73 %30.42 in2.0 miWest (260°)4.6 mph0.00 inSnowLight Snow
1:03 PM15.8 °F8.6 °F73 %30.42 in3.0 miWest (270°)5.8 mph0.00 inSnowLight Snow
1:13 PM15.8 °F8.6 °F73 %30.42 in5.0 miWest (260°)3.5 mph0.00 inSnowLight Snow
1:51 PM17.1 °F9.0 °F71 %30.46 in6.0 miCalm0.00 inSnowLight Snow
1:57 PM15.8 °F8.6 °F73 %30.41 in6.0 miNNW (340°)4.6 mph0.00 inSnowLight Snow
2:51 PM17.1 °F9.0 °F71 %30.47 in9.0 miNNW (340°)3.5 mph0.00 inSnowLight Snow
3:51 PM17.1 °F9.0 °F71 %30.45 in10.0 miCalm0.00 inOvercast
4:51 PM18.0 °F9.0 °F68 %30.44 in10.0 miCalmOvercast
5:51 PM18.0 °F9.0 °F68 %30.44 in10.0 miCalmMostly Cloudy
6:51 PM18.0 °F9.0 °F68 %30.43 in10.0 miENE (60°)3.5 mphOvercast
7:51 PM18.0 °F9.0 °F68 %30.43 in10.0 miEast (100°)3.5 mphMostly Cloudy
8:51 PM15.1 °F8.1 °F74 %30.44 in10.0 miNE (50°)3.5 mphScattered Clouds
9:51 PM15.1 °F9.0 °F77 %30.43 in10.0 miEast (80°)3.5 mphPartly Cloudy
10:51 PM14.0 °F9.0 °F80 %30.44 in10.0 miENE (70°)4.6 mphClear
11:51 PM15.1 °F9.0 °F77 %30.44 in10.0 miCalmPartly Cloudy
Hourly data recorded from KSTL, located miles away from Chesterfield, Missouri







STORIES FROM OUR PARTNERS